Location: B?ogocice
(50.2413°N, 20.2361°E)
Time: 00:00:14
(UTC+00:00)

UNK - Visible Passes

Search period start: 16 September 2024 00:00
Search period end: 26 September 2024 00:00
Orbit: 659 x 677 km, 98.3° (Epoch: 14 September)

Date Brightness Start Highest point End Pass type
(mag) Time Alt. Az. Time Alt. Az. Time Alt. Az.
16 Sep 3.9 01:33:22 38° SE 01:35:05 71° ENE 01:39:43 10° N visible
16 Sep 5.2 03:11:33 15° WSW 03:12:38 16° W 03:15:33 10° NW visible
17 Sep 6.1 00:27:59 13° E 00:30:40 21° ENE 00:34:08 10° N visible
17 Sep 3.7 02:06:10 45° SSW 02:07:20 60° WSW 02:11:56 10° NNW visible
18 Sep 5.1 01:00:47 26° ESE 01:02:38 37° ENE 01:06:53 10° N visible
18 Sep 4.5 02:38:58 29° WSW 02:39:43 31° W 02:43:51 10° NNW visible
18 Sep 6.7 23:56:42 10° ENE 23:58:29 12° NE 00:00:17 10° NNE visible
19 Sep 3.9 01:33:35 49° SE 01:34:43 70° ENE 01:39:20 10° N visible
19 Sep 5.2 03:11:46 16° W 03:12:15 17° W 03:15:12 10° NW visible
20 Sep 6.1 00:28:11 16° E 00:30:17 21° ENE 00:33:43 10° NNE visible
20 Sep 3.7 02:06:22 56° SW 02:06:56 61° WSW 02:11:32 10° NNW visible
21 Sep 5.1 01:00:58 31° E 01:02:13 36° ENE 01:06:28 10° N visible
21 Sep 4.4 02:39:09 31° W 02:39:18 31° W 02:43:26 10° NNW visible
21 Sep 6.7 23:56:22 10° ENE 23:58:04 12° NE 23:59:47 10° NNE visible
22 Sep 3.9 01:33:45 62° ESE 01:34:17 69° ENE 01:38:54 10° N visible
22 Sep 5.2 03:11:56 17° W 03:11:56 17° W 03:14:48 10° NW visible
23 Sep 6.1 00:28:21 18° E 00:29:51 21° ENE 00:33:14 10° NNE visible
23 Sep 3.6 02:06:32 62° W 02:06:32 62° W 02:11:05 10° NNW visible
24 Sep 5.1 01:01:08 34° E 01:01:45 36° ENE 01:05:59 10° N visible
24 Sep 4.5 02:39:19 31° W 02:39:19 31° W 02:42:58 10° NNW visible
24 Sep 6.7 23:55:59 10° ENE 23:57:36 12° NE 23:59:13 10° NNE visible
25 Sep 4.0 01:33:54 67° ENE 01:33:54 67° ENE 01:38:24 10° N visible
25 Sep 5.3 03:12:05 16° WNW 03:12:05 16° WNW 03:14:20 10° NW visible
